Weather History for KEED - April, 2014

Change the Weather History Date:

Thursday, April 10, 2014

  Actual Average Record
Temperature  
Mean Temperature 83 °F -  
Max Temperature 100 °F 85 °F 103 °F (1989)
Min Temperature 66 °F 56 °F 43 °F (2011)
Cooling Degree Days 18    
Growing Degree Days 33 (Base 50)    
Moisture  
Dew Point -1 °F    
Average Humidity 5    
Maximum Humidity 8    
Minimum Humidity 4    
Precipitation  
Precipitation 0.00 in - - ()
Sea Level Pressure  
Sea Level Pressure 29.78 in    
Wind  
Wind Speed 7 mph (WSW)    
Max Wind Speed 15 mph    
Max Gust Speed 26 mph    
Visibility 10 miles    
Events      
Averages and records for this station are not official NWS values.
T = Trace of Precipitation, MM = Missing Value Source: NWS Daily Summary

Daily Weather History Graph

Daily Weather History Graph

Search for Another Location

Airport or City:

Trip Planner

Search our weather history database for the weather conditions in past years. The results will help you decide how hot, cold, wet, or windy it might be!

Date:

Astronomy

Apr. 10, 2014 Rise Set
Actual Time 6:13 AM PDT 7:06 PM PDT
Civil Twilight 5:47 AM PDT 7:32 PM PDT
Nautical Twilight 5:16 AM PDT 8:03 PM PDT
Astronomical Twilight 4:45 AM PDT 8:34 PM PDT
Moon 3:04 PM PDT (4/10) 3:27 AM PDT (4/10)
Length of Visible Light 13h 45m
Length of Day
12h 53m
Waxing Gibbous, 80% of the Moon is Illuminated
Apr 10
Waxing Gibbous
Apr 15
Full
Apr 22
Last Quarter
Apr 28
New
May 6
First Quarter

Hourly Weather History & Observations

Time (PDT) Temp. Dew Point Humidity Pressure Visibility Wind Dir Wind Speed Gust Speed Precip Events Conditions
12:56 AM 84.9 °F 6.1 °F 5% 29.79 in 10.0 mi West 9.2 mph - N/A   Clear
1:56 AM 80.1 °F 3.0 °F 5% 29.80 in 10.0 mi West 4.6 mph - N/A   Clear
2:56 AM 75.9 °F 6.1 °F 7% 29.80 in 10.0 mi NNE 3.5 mph - N/A   Clear
3:56 AM 72.0 °F 6.1 °F 8% 29.79 in 10.0 mi SSW 5.8 mph - N/A   Clear
5:56 AM 66.9 °F 3.9 °F 8% 29.82 in 10.0 mi WNW 5.8 mph - N/A   Clear
6:56 AM 69.1 °F 5.0 °F 8% 29.83 in 10.0 mi Calm Calm - N/A   Clear
7:56 AM 78.1 °F 12.0 °F 8% 29.85 in 10.0 mi Calm Calm - N/A   Clear
8:56 AM 81.0 °F 10.0 °F 7% 29.86 in 10.0 mi East 3.5 mph - N/A   Clear
9:56 AM 86.0 °F 10.9 °F 6% 29.86 in 10.0 mi Calm Calm - N/A   Clear
10:56 AM 90.0 °F 12.0 °F 6% 29.84 in 10.0 mi Variable 3.5 mph - N/A   Clear
11:56 AM 96.1 °F 1.9 °F 4% 29.81 in 10.0 mi North - - N/A   Clear
12:56 PM 98.1 °F -6.0 °F 4% 29.79 in 10.0 mi WSW 15.0 mph 20.7 mph N/A   Clear
1:56 PM 100.0 °F -13.0 °F 4% 29.77 in 10.0 mi West 13.8 mph 26.5 mph N/A   Clear
2:56 PM 99.0 °F -13.0 °F 4% 29.75 in 10.0 mi NW 9.2 mph - N/A   Clear
3:56 PM 99.0 °F -16.1 °F 4% 29.73 in 10.0 mi SSW 9.2 mph 19.6 mph N/A   Clear
4:56 PM 97.0 °F -15.0 °F 4% 29.71 in 10.0 mi Variable 5.8 mph - N/A   Clear
5:56 PM 97.0 °F -16.1 °F 4% 29.71 in 10.0 mi WSW 8.1 mph - N/A   Clear
6:56 PM 93.9 °F -14.1 °F 4% 29.71 in 10.0 mi WSW 11.5 mph - N/A   Clear
7:56 PM 89.1 °F -11.0 °F 4% 29.71 in 10.0 mi WSW 8.1 mph - N/A   Clear
8:56 PM 86.0 °F -9.9 °F 4% 29.73 in 10.0 mi WSW 10.4 mph - N/A   Clear
9:56 PM 87.1 °F 1.9 °F 4% 29.73 in 10.0 mi WSW 11.5 mph - N/A   Clear
10:56 PM 87.1 °F 3.9 °F 4% 29.72 in 10.0 mi SW 11.5 mph - N/A   Clear
11:56 PM 84.0 °F 1.9 °F 4% 29.72 in 10.0 mi WSW 9.2 mph - N/A   Clear